El Arish, Egypt

11:51 AM EET on July 26, 2017 (GMT +0200)
El Arish

Weather History for HEAR - July, 2013

Change the Weather History Date:

Saturday, July 20, 2013

  Actual Average Record
Temperature  
Mean Temperature 78 °F -  
Max Temperature 87 °F 86 °F - ()
Min Temperature 69 °F 67 °F - ()
Cooling Degree Days 13    
Growing Degree Days 28 (Base 50)    
Moisture  
Dew Point 70 °F    
Average Humidity 75    
Maximum Humidity 94    
Minimum Humidity 44    
Precipitation  
Precipitation 0.00 in 0.00 in - ()
Sea Level Pressure  
Sea Level Pressure 29.74 in    
Wind  
Wind Speed 4 mph ()    
Max Wind Speed 10 mph    
Max Gust Speed -    
Visibility 5.7 miles    
Events      
T = Trace of Precipitation, MM = Missing Value Source: Averaged Metar Reports

Daily Weather History Graph

Daily Weather History Graph

Search for Another Location

Airport or City:

Trip Planner

Search our weather history database for the weather conditions in past years. The results will help you decide how hot, cold, wet, or windy it might be!

Date:

Astronomy

Jul. 20, 2013 Rise Set
Actual Time 4:54 AM EET 6:47 PM EET
Civil Twilight 4:27 AM EET 7:14 PM EET
Nautical Twilight 3:54 AM EET 7:47 PM EET
Astronomical Twilight 3:19 AM EET 8:21 PM EET
Moon 4:31 PM EET (7/20) 2:12 AM EET (7/20)
Length of Visible Light 14h 47m
Length of Day
13h 53m
Waxing Gibbous, 92% of the Moon is Illuminated
Jul 20
Waxing Gibbous
Jul 22
Full
Jul 29
Last Quarter
Aug 6
New
Aug 14
First Quarter

Hourly Weather History & Observations

Time (EET) Temp. Heat Index Dew Point Humidity Pressure Visibility Wind Dir Wind Speed Gust Speed Precip Events Conditions
12:00 AM 73.4 °F - 69.8 °F 88% 29.74 in 6.2 mi South 2.3 mph - N/A   Partly Cloudy
1:00 AM 73.4 °F - 69.8 °F 88% 29.74 in 6.2 mi SSW 1.2 mph - N/A   Partly Cloudy
2:00 AM 71 °F - 69 °F 91% 29.74 in 6 mi South 1.2 mph - -  
2:00 AM 71.6 °F - 68.0 °F 88% 29.71 in - South 1.2 mph - N/A   Clear
3:00 AM 71.6 °F - 69.8 °F 94% 29.71 in - SSE 2.3 mph - N/A   Clear
4:00 AM 71.6 °F - 69.8 °F 94% 29.71 in 3.7 mi South 2.3 mph - N/A   Unknown
5:00 AM 69.8 °F - 68.0 °F 94% 29.71 in 3.7 mi South 1.2 mph - N/A   Unknown
6:00 AM 71.6 °F - 69.8 °F 94% 29.74 in 3.7 mi SSW 2.3 mph - N/A   Unknown
7:00 AM 77.0 °F - 73.4 °F 89% 29.74 in 5.0 mi WSW 2.3 mph - N/A   Scattered Clouds
8:00 AM 80 °F - 72 °F 72% 29.77 in 6 mi WSW 3.5 mph - -   Partly Cloudy
8:00 AM 80.6 °F 84.6 °F 71.6 °F 74% 29.74 in 6.2 mi WSW 3.5 mph - N/A   Scattered Clouds
9:00 AM 82.4 °F 86.3 °F 69.8 °F 66% 29.74 in 6.2 mi WNW 4.6 mph - N/A   Mostly Cloudy
10:00 AM 84.2 °F 88.4 °F 69.8 °F 62% 29.77 in 6.2 mi NW 5.8 mph - N/A   Mostly Cloudy
11:00 AM 86.0 °F 89.4 °F 68.0 °F 55% 29.74 in 6.2 mi NW 8.1 mph - N/A   Scattered Clouds
12:00 PM 86.0 °F 88.2 °F 66.2 °F 51% 29.74 in 6.2 mi NW 9.2 mph - N/A   Scattered Clouds
1:00 PM 87.8 °F 92.6 °F 69.8 °F 55% 29.74 in - NW 10.4 mph - N/A   Clear
2:00 PM 86 °F - 67 °F 44% 29.74 in 6 mi NW 10.4 mph - -  
2:00 PM 86.0 °F 89.4 °F 68.0 °F 55% 29.74 in - NW 10.4 mph - N/A   Clear
3:00 PM 86.0 °F 87.3 °F 64.4 °F 48% 29.71 in - NNW 10.4 mph - N/A   Clear
4:00 PM 84.2 °F 86.6 °F 66.2 °F 55% 29.71 in - NW 10.4 mph - N/A   Clear
5:00 PM 84.2 °F 89.6 °F 71.6 °F 66% 29.71 in - NNW 10.4 mph - N/A   Clear
6:00 PM 82.4 °F 88.2 °F 73.4 °F 74% 29.74 in - NNW 9.2 mph - N/A   Clear
7:00 PM 78.8 °F - 75.2 °F 89% 29.74 in - NNW 6.9 mph - N/A   Clear
8:00 PM 79 °F - 73 °F 78% 29.76 in 6 mi NW 6.9 mph - -   Partly Cloudy
8:00 PM 78.8 °F - 73.4 °F 83% 29.74 in 6.2 mi NW 6.9 mph - N/A   Scattered Clouds
9:00 PM 78.8 °F - 73.4 °F 83% 29.77 in 6.2 mi NNW 6.9 mph - N/A   Scattered Clouds
10:00 PM 77.0 °F - 71.6 °F 83% 29.77 in 6.2 mi WNW 2.3 mph - N/A   Scattered Clouds
11:00 PM 77.0 °F - 73.4 °F 89% 29.77 in 6.2 mi West 2.3 mph - N/A   Scattered Clouds